Hourly Data Report for August 15, 2020

OTTAWA INTL A
ONTARIO
Current Station Operator: NAVCAN

45°19'00.000" N
75°40'00.000" W
114.90 m
6106001
71628
YOW

Download Data

Hourly Data (August 2020)
Hourly Data Report for August 15, 2020
TIME
LST
Temp Definition
°C
Dew Point Definition
°C
Rel Hum Definition
%
Precip. Amount Definition
mm

Wind Dir Definition
10's deg

Wind Spd Definition
km/h
Visibility Definition
km
Stn Press Definition
kPa
Hmdx Definition


Wind Chill Definition


Weather Definition


00:00 17.4 13.1 75   6 13 24.1 100.56     LegendNANA
01:00 15.9 13.1 83   5 14 24.1 100.51     Clear
02:00 15.0 12.7 86   4 14 24.1 100.49     LegendNANA
03:00 14.9 13.0 88   4 15 24.1 100.47     LegendNANA
04:00 14.2 12.9 92   4 14 24.1 100.48     Clear
05:00 14.1 12.6 91   4 14 24.1 100.51     LegendNANA
06:00 15.2 13.5 89   5 10 24.1 100.54     LegendNANA
07:00 17.8 14.1 79   6 19 24.1 100.54     Clear
08:00 19.4 14.7 74   7 20 24.1 100.55     LegendNANA
09:00 21.5 16.4 73   6 12 24.1 100.54 26   LegendNANA
10:00 23.1 16.5 66   9 13 24.1 100.49 28   Clear
11:00 24.7 17.2 63   10 13 24.1 100.44 30   LegendNANA
12:00 26.1 16.5 55   6 13 24.1 100.40 31   LegendNANA
13:00 27.6 15.8 48   10 20 24.1 100.37 32   Clear
14:00 28.1 16.2 48   12 12 24.1 100.32 33   LegendNANA
15:00 28.3 15.8 46   11 11 24.1 100.25 33   LegendNANA
16:00 28.3 14.1 41   10 15 24.1 100.23 32   Mainly Clear
17:00 27.7 13.7 41   8 17 24.1 100.22 31   LegendNANA
18:00 26.3 15.1 50   8 18 24.1 100.21 30   LegendNANA
19:00 23.7 15.7 60   9 13 24.1 100.22 28   Clear
20:00 22.9 14.9 60   7 13 24.1 100.25 27   LegendNANA
21:00 21.4 14.9 66   6 14 24.1 100.24 25   LegendNANA
22:00 21.0 15.1 69   7 14 24.1 100.22 25   Mostly Cloudy
23:00 19.9 15.2 74   9 14 24.1 100.19     LegendNANA

Notes on Data Quality.

Legend

  • E = Estimated
  • M = Missing
  • NA = Not Available*
  • [empty] = Indicates an unobserved value
Date modified: